Location: Göttingen
(51.5413°N, 9.9158°E)
Time: 04:01:36
(UTC+02:00)

EO-88 - Visible Passes

Search period start: 30 June 2022 00:00
Search period end: 10 July 2022 00:00
Orbit: 457 x 464 km, 97.3° (Epoch: 29 June)

Date Brightness Start Highest point End Pass type
(mag) Time Alt. Az. Time Alt. Az. Time Alt. Az.
30 Jun ? 22:54:48 10° S 22:58:12 53° W 23:01:39 10° NNW visible
01 Jul ? 22:23:09 10° SSE 22:26:35 64° ENE 22:30:03 10° N visible
01 Jul ? 23:58:40 10° WSW 23:59:58 12° W 00:01:18 10° WNW visible
02 Jul ? 23:25:10 10° SSW 23:28:04 24° W 23:31:00 10° NW visible
03 Jul ? 22:52:52 10° S 22:56:17 56° W 22:59:44 10° NNW visible
04 Jul ? 22:21:12 10° SSE 22:24:37 61° ENE 22:28:03 10° N visible
04 Jul ? 23:56:29 10° WSW 23:57:59 12° W 23:59:29 10° WNW visible
05 Jul ? 23:23:05 10° SSW 23:26:02 26° W 23:29:00 10° NW visible
06 Jul ? 22:50:47 10° S 22:54:13 59° W 22:57:39 10° NNW visible
07 Jul ? 22:19:06 10° SSE 22:22:30 57° ENE 22:25:56 10° N visible
07 Jul ? 23:54:11 10° WSW 23:55:51 13° W 23:57:30 10° WNW visible
08 Jul ? 23:20:52 10° SSW 23:23:52 27° W 23:26:52 10° NW visible
09 Jul ? 22:48:33 10° S 22:52:00 63° WSW 22:55:27 10° NNW visible
